ASTRA 1G
1 25071U 97076A   03099.00000000  .00000122  00000-0  10000-3 0  3987
2 25071   0.0122 319.8851 0002995  65.1991 190.9189  1.00273184 19635
INMARSAT 3-F5
1 25153U 98006B   03105.34891302  .00000000  00000-0  10000-3 0  8711
2 25153   0.4534 355.8620 0003036  23.6980 334.1303  1.00273319 19051
HOT BIRD 4
1 25237U 98013A   03099.84635997  .00000087  00000-0  10000-3 0  3344
2 25237   0.0316 347.7932 0006645  69.4486  98.0254  1.00270260 19044
NOAA 15
1 25338U 98030A   03106.64282794  .00000171  00000-0  92448-4 0   815
2 25338  98.5475 127.2422 0011008 146.0560 214.1325 14.24272484255922
RESURS O1-N4
1 25394U 98043A   03106.13302341  .00000070  00000-0  49404-4 0  4957
2 25394  98.6206 182.9891 0000832 344.6431  15.4726 14.23899198247587
TMSAT
1 25396U 98043C   03105.90688927 -.00000043 +00000-0 +00000-0 0 09254
2 25396 098.6158 181.8767 0002117 354.2794 005.8366 14.23529548247540
TECHSAT 1B
1 25397U 98043D   03105.95069554 +.00000053 +00000-0 +42924-4 0 01672
2 25397 098.6139 180.7317 0001503 023.8222 336.3025 14.22973461247519
ASTRA 2A
1 25462U 98050A   03099.00000000  .00000152  00000-0  00000+0 0  5401
2 25462   0.0385 308.7109 0004824 280.8620 355.4582  1.00272094 16935
EUTELSAT W2
1 25491U 98056A   03105.84269355  .00000000  00000-0  10000-3 0  5989
2 25491   0.0466 135.2279 0068238 294.0685  93.0438  1.00275633 16617
HOT BIRD 5
1 25495U 98057A   03099.85365163  .00000146  00000-0  00000+0 0  5088
2 25495   0.0280  82.8420 0010247 215.0657 232.9622  1.00274308 16526
SEDSAT 1
1 25509U 98061B   03105.60084785  .00000384  00000-0  67129-4 0  8243
2 25509  31.4287 196.7291 0357039  72.1939 291.7305 14.27483723233322
PAN SAT
1 25520U 98064B   03105.65515293 +.00001722 +00000-0 +81703-4 0 06640
2 25520 028.4628 210.2013 0006224 243.3053 116.6888 15.14178894246096
ISS (ZARYA)
1 25544U 98067A   03106.62856203  .00023432  00000-0  30974-3 0  8980
2 25544  51.6343 329.4475 0006466  27.2648  12.8303 15.58206158251409
ORSTED
1 25635U 99008B   03105.96865534 +.00000425 +00000-0 +11472-3 0 08811
2 25635 096.4605 078.7458 0145033 149.4327 211.5419 14.44925565218085
SUNSAT
1 25636U 99008C   03105.95485674 +.00000206 +00000-0 +61535-4 0 07153
2 25636 096.4622 077.2762 0149154 156.5372 204.2721 14.42998629217942
UOSAT 12
1 25693U 99021A   03106.51520491  .00000218  00000-0  51031-4 0  8807
2 25693  64.5600 196.4773 0025650 312.9360  46.9591 14.76451590214662
FENGYUN 1C
1 25730U 99025A   03106.56525274  .00000018  00000-0  32744-4 0  8136
2 25730  98.6284 128.8175 0014062 196.7561 163.3148 14.11740578202677
ASTRA 1H
1 25785U 99033A   03099.00000000  .00000123  00000-0  10000-3 0  3783
2 25785   0.0122 319.8851 0002995  65.1991 190.9720  1.00273184 13991
TERRA
1 25994U 99068A   03106.30814891  .00000211  00000-0  56809-4 0  8833
2 25994  98.1914 181.6211 0000834  90.2625 269.8670 14.57133925176936
JAWSAT
1 26061U 00004A   03106.22201322  .00000445  00000-0  16565-3 0  8137
2 26061 100.1952 173.7755 0035909 119.4440 241.0330 14.37897652168672
OPAL
1 26063U 00004C   03105.73389939  .00000115  00000-0  59893-4 0  7635
2 26063 100.2021 170.4708 0037283 128.1601 232.2942 14.35506965168445
ASUSAT
1 26065U 00004E   03106.24723194  .00000132  00000-0  65708-4 0  7810
2 26065 100.1988 171.2396 0037931 128.1347 232.3260 14.35537178168519
GOES 11
1 26352U 00022A   03106.43167661 -.00000035  00000-0  10000-3 0  1137
2 26352   0.2816  99.1547 0002773 233.6558 272.7091  1.00272244 10802
EUTELSAT W4
1 26369U 00028A   03105.78126854  .00000150  00000-0  00000+0 0  3759
2 26369   0.0567  31.2297 0002759 330.6543 158.9819  1.00272063 10617
FENGYUN 2B
1 26382U 00032A   03104.69773177 -.00000335  00000-0  00000+0 0  8306
2 26382   0.4311 298.2271 0001556 256.6792   2.8632  1.00284143 10260
EUTELSAT W1
1 26487U 00052A   03105.90480097  .00000064  00000-0  10000-3 0  3842
2 26487   0.0284 147.6292 0003964 235.6978 156.0143  1.00274400  9586
ASTRA 2B
1 26494U 00054A   03099.00000000  .00000152  00000-0  00000+0 0  2614
2 26494   0.0178 354.5658 0005000 302.8402 287.5550  1.00276704  9416
NOAA 16
1 26536U 00055A   03106.48638856  .00000325  00000-0  20202-3 0  2925
2 26536  98.9101  54.3778 0011140 141.2436 218.9548 14.11938267132188
SAUDISAT 1A
1 26545U 00057A   03105.66568413 +.00000740 +00000-0 +11717-3 0 04392
2 26545 064.5584 219.4885 0047796 229.8522 129.8381 14.79130649137520
UNISAT
1 26547U 00057C   03105.68886961 +.00001288 +00000-0 +18471-3 0 04603
2 26547 064.5572 221.4194 0055035 231.1677 128.4447 14.79988750137495
TIUNGSAT 1
1 26548U 00057D   03105.66819381 +.00000841 +00000-0 +12428-3 0 04435
2 26548 064.5574 211.7405 0040912 230.4730 129.2747 14.81463506137688
SAUDISAT 1B
1 26549U 00057E   03105.80986948  .00000844  00000-0  13372-3 0  7307
2 26549  64.5525 223.4497 0052386 229.3097 130.3446 14.78062576137459
AMSAT OSCAR 40
1 26609U 00072B   03101.06918723 -.00000337  00000-0  10000-3 0  3243
2 26609   8.4684  54.7135 7954739 162.8251 262.9704  1.25597299 11235
GOES 12
1 26871U 01031A   03106.27973943 -.00000253  00000-0  10000-3 0  9202
2 26871   0.1873 274.6919 0000672  90.8597 221.8877  1.00348711  6406
PCSAT
1 26931U 01043C   03105.93181451 +.00000122 +00000-0 +80538-4 0 04538
2 26931 067.0470 110.5099 0005880 274.1505 085.8924 14.29147469080402
SAPPHIRE
1 26932U 01043D   03106.53277848  .00000019  00000-0  40088-4 0  4454
2 26932  67.0539 108.6540 0003983 262.4092  97.6556 14.29317053 80513
ENVISAT
1 27386U 02009A   03106.48125375  .00000136  00000-0  66546-4 0    28
2 27386  98.5454 174.2246 0000962  93.3530 266.7764 14.32245993 58899
IDEFIX/ARIANE 42P
1 27422U 02021B   03105.93747084 +.00000173 +00000-0 +87578-4 0 02873
2 27422 098.6869 184.8531 0012300 350.0847 010.0086 14.28002174049500
FENGYUN 1D
1 27431U 02024B   03105.61575422 -.00000043 +00000-0 +11689-6 0 02976
2 27431 098.7558 153.0675 0014489 328.6174 031.4170 14.09182936047263
NOAA 17
1 27453U 02032A   03106.57758654  .00000236  00000-0  12339-3 0  3766
2 27453  98.7454 177.4592 0011835 187.1733 172.9277 14.23330024 42073
HOT BIRD 6
1 27499U 02038A   03104.14052927  .00000000  00000-0  10000-3 0   739
2 27499   0.0313 303.0505 0012771 138.1476 184.1937  1.00273600  2378
RUBIN 2
1 27605U 02058A   03106.26309295  .00000354  00000-0  78061-4 0  1092
2 27605  64.5516  25.0702 0034855  87.2786 273.2300 14.71461428 17157
